Location: Caltech
(34.1382°N, 118.1253°W)
Time: 11:50:50
(UTC-07:00)

SL-16 R/B - Visible Passes

Search period start: 05 July 2015 00:00
Search period end: 15 July 2015 00:00
Orbit: 843 x 846 km, 71.0° (Epoch: 05 July)

Date Brightness Start Highest point End Pass type
(mag) Time Alt. Az. Time Alt. Az. Time Alt. Az.
05 Jul 3.7 21:26:17 10° N 21:30:34 22° ENE 21:33:23 16° E visible
05 Jul 2.8 23:09:33 10° NW 23:14:56 44° WSW 23:15:15 44° WSW visible
06 Jul 3.7 21:12:08 10° N 21:16:19 21° ENE 21:19:38 14° E visible
06 Jul 2.8 22:55:19 10° NW 23:00:43 46° WSW 23:01:30 43° SW visible
07 Jul 3.8 20:57:59 10° N 21:02:04 21° ENE 21:05:55 11° ESE visible
07 Jul 2.8 22:41:05 10° NNW 22:46:31 48° WSW 22:47:47 41° SW visible
08 Jul 3.8 20:43:50 10° NNE 20:47:50 20° ENE 20:51:59 10° ESE visible
08 Jul 2.8 22:26:50 10° NNW 22:32:18 50° WSW 22:34:08 36° SSW visible
09 Jul 3.8 20:29:42 10° NNE 20:33:35 19° NE 20:37:39 10° ESE visible
09 Jul 2.7 22:12:35 10° NNW 22:18:06 53° WSW 22:20:31 31° SSW visible
10 Jul 2.7 21:58:21 10° NNW 22:03:53 55° WSW 22:06:57 26° S visible
11 Jul 2.7 21:44:07 10° NNW 21:49:41 57° WSW 21:53:26 21° S visible
12 Jul 2.6 21:29:53 10° NNW 21:35:28 60° WSW 21:39:58 16° S visible
13 Jul 2.6 21:15:39 10° NNW 21:21:15 63° WSW 21:26:35 11° S visible
14 Jul 2.6 21:01:25 10° NNW 21:07:03 65° WSW 21:12:38 10° S visible
